Retour au catalogue

SL-14 R/B

ActifPO
NORAD 10974·ROCKET BODY·🇷🇺 Russia

Lancé Jun 28, 1978 depuis Plesetsk Cosmodrome

Loading…

Prochains Passages (prochaines 24 heures)

TLE

FraisSource: Space-Track

Époque: Sep 14, 2026, 07:09 UTC

1 10974U 78067B   26257.29808802  .00000402  00000-0  38904-4 0  9992
2 10974  82.4820 207.5847 0015084 305.3075  54.6732 14.90161881588491

Suivez SL-14 R/B en temps réel avec AllMySat

Download on the App Store